Weather History for Harbor Springs, MI

Change the Weather History Date:

Tuesday, January 25, 2011

  Actual Average (KPLN) Record (KPLN)
Temperature  
Mean Temperature 29 °F -  
Max Temperature 32 °F 26 °F 51 °F (1950)
Min Temperature 26 °F 8 °F -23 °F (2004)
Degree Days  
Heating Degree Days 36    
Moisture  
Dew Point 22 °F    
Average Humidity 73    
Maximum Humidity 86    
Minimum Humidity 64    
Precipitation  
Precipitation 0.00 in - - ()
Sea Level Pressure  
Sea Level Pressure 29.96 in    
Wind  
Wind Speed 8 mph (WSW)    
Max Wind Speed 15 mph    
Max Gust Speed 22 mph    
Visibility 9 miles    
Events Snow    
Averages and records for this station are not official NWS values.
T = Trace of Precipitation, MM = Missing Value Source: NWS Daily Summary

Daily Weather History Graph

Daily Weather History Graph

Search for Another Location

Airport:

Trip Planner

Search our weather history database for the weather conditions in past years. The results will help you decide how hot, cold, wet, or windy it might be!

Date:

Astronomy

Jan. 25, 2011 Rise Set
Actual Time 8:08 AM EST 5:36 PM EST
Civil Twilight 7:36 AM EST 6:08 PM EST
Nautical Twilight 7:00 AM EST 6:44 PM EST
Astronomical Twilight 6:25 AM EST 7:19 PM EST
Moon 12:08 AM EST (1/25) 10:44 AM EST (1/25)
Length of Visible Light 10h 32m
Length of Day
9h 27m
Waning Gibbous, 60% of the Moon is Illuminated
Jan 25
Waning Gibbous
Jan 26
Last Quarter
Feb 2
New
Feb 11
First Quarter
Feb 18
Full

Hourly Weather History & Observations

Time (EST) Temp. Windchill Dew Point Humidity Pressure Visibility Wind Dir Wind Speed Gust Speed Precip Events Conditions
12:15 AM 26.6 °F 16.8 °F 23.0 °F 86% 29.91 in 7.0 mi SW 10.4 mph - N/A   Overcast
12:35 AM 28.4 °F 23.3 °F 23.0 °F 80% 29.91 in 7.0 mi West 4.6 mph 16.1 mph N/A   Overcast
12:54 AM 28.4 °F 19.7 °F 23.0 °F 80% 29.91 in 10.0 mi West 9.2 mph - N/A   Overcast
1:15 AM 28.4 °F 23.3 °F 23.0 °F 80% 29.91 in 10.0 mi West 4.6 mph - N/A   Overcast
1:34 AM 28.4 °F 20.4 °F 21.2 °F 74% 29.91 in 10.0 mi West 8.1 mph - N/A   Overcast
1:54 AM 28.4 °F 22.2 °F 21.2 °F 74% 29.91 in 10.0 mi West 5.8 mph - N/A   Overcast
2:15 AM 28.4 °F 21.2 °F 21.2 °F 74% 29.92 in 10.0 mi West 6.9 mph - N/A   Overcast
2:34 AM 28.4 °F 23.3 °F 19.4 °F 69% 29.92 in 10.0 mi WNW 4.6 mph - N/A   Overcast
2:54 AM 28.4 °F 23.3 °F 19.4 °F 69% 29.93 in 10.0 mi WNW 4.6 mph - N/A   Overcast
3:15 AM 26.6 °F 20.0 °F 19.4 °F 74% 29.94 in 10.0 mi WNW 5.8 mph - N/A   Overcast
3:34 AM 26.6 °F 20.0 °F 19.4 °F 74% 29.94 in 10.0 mi West 5.8 mph - N/A   Overcast
3:54 AM 26.6 °F 22.6 °F 19.4 °F 74% 29.94 in 10.0 mi West 3.5 mph - N/A   Overcast
4:14 AM 26.6 °F 21.2 °F 19.4 °F 74% 29.94 in 10.0 mi West 4.6 mph - N/A   Overcast
4:34 AM 28.4 °F 20.4 °F 19.4 °F 69% 29.94 in 10.0 mi West 8.1 mph - N/A   Overcast
4:55 AM 28.4 °F 22.2 °F 19.4 °F 69% 29.94 in 10.0 mi West 5.8 mph - N/A   Overcast
5:14 AM 28.4 °F 21.2 °F 19.4 °F 69% 29.95 in 10.0 mi West 6.9 mph - N/A   Overcast
5:55 AM 28.4 °F 23.3 °F 19.4 °F 69% 29.95 in 10.0 mi West 4.6 mph - N/A   Overcast
6:14 AM 28.4 °F 21.2 °F 19.4 °F 69% 29.95 in 10.0 mi WNW 6.9 mph - N/A   Overcast
6:34 AM 28.4 °F 22.2 °F 21.2 °F 74% 29.95 in 10.0 mi West 5.8 mph - N/A   Overcast
6:54 AM 28.4 °F 22.2 °F 21.2 °F 74% 29.96 in 10.0 mi West 5.8 mph - N/A   Overcast
7:14 AM 28.4 °F 20.4 °F 21.2 °F 74% 29.96 in 10.0 mi West 8.1 mph - N/A   Overcast
7:34 AM 28.4 °F 23.3 °F 21.2 °F 74% 29.96 in 10.0 mi West 4.6 mph - N/A   Overcast
7:54 AM 28.4 °F 24.6 °F 21.2 °F 74% 29.96 in 10.0 mi West 3.5 mph - N/A   Overcast
8:14 AM 28.4 °F 23.3 °F 21.2 °F 74% 29.97 in 10.0 mi West 4.6 mph - N/A   Overcast
8:34 AM 28.4 °F 21.2 °F 21.2 °F 74% 29.98 in 10.0 mi West 6.9 mph - N/A   Overcast
8:55 AM 28.4 °F 22.2 °F 21.2 °F 74% 29.99 in 7.0 mi West 5.8 mph - N/A Snow Light Snow
9:14 AM 28.4 °F 20.4 °F 21.2 °F 74% 29.99 in 5.0 mi West 8.1 mph - N/A Snow Light Snow
9:35 AM 28.4 °F 22.2 °F 21.2 °F 74% 30.00 in 4.0 mi West 5.8 mph - N/A Snow Light Snow
10:14 AM 28.4 °F 20.4 °F 23.0 °F 80% 30.01 in 3.0 mi West 8.1 mph - N/A Snow Light Snow
10:35 AM 28.4 °F 22.2 °F 23.0 °F 80% 30.01 in 7.0 mi West 5.8 mph - N/A Snow Light Snow
10:54 AM 28.4 °F 23.3 °F 21.2 °F 74% 30.01 in 7.0 mi West 4.6 mph - N/A Snow Light Snow
11:14 AM 30.2 °F 24.3 °F 23.0 °F 75% 30.01 in 5.0 mi West 5.8 mph - N/A Snow Light Snow
11:35 AM 30.2 °F 24.3 °F 23.0 °F 75% 30.01 in 10.0 mi WSW 5.8 mph - N/A   Overcast
11:54 AM 32.0 °F 26.4 °F 21.2 °F 64% 30.01 in 10.0 mi WSW 5.8 mph - N/A   Overcast
12:14 PM 30.2 °F 25.4 °F 23.0 °F 75% 30.01 in 10.0 mi WSW 4.6 mph - N/A   Overcast
12:35 PM 30.2 °F 25.4 °F 23.0 °F 75% 30.00 in 10.0 mi West 4.6 mph - N/A   Overcast
12:54 PM 28.4 °F 23.3 °F 23.0 °F 80% 29.99 in 10.0 mi West 4.6 mph - N/A   Overcast
1:14 PM 30.2 °F 23.4 °F 23.0 °F 75% 29.99 in 10.0 mi West 6.9 mph - N/A   Overcast
1:35 PM 30.2 °F 21.9 °F 23.0 °F 75% 29.98 in 10.0 mi WSW 9.2 mph 17.3 mph N/A   Overcast
1:54 PM 30.2 °F 20.2 °F 21.2 °F 69% 29.98 in 10.0 mi SW 12.7 mph 16.1 mph N/A   Overcast
2:14 PM 30.2 °F 20.2 °F 21.2 °F 69% 29.97 in 10.0 mi WSW 12.7 mph 21.9 mph N/A   Overcast
2:35 PM 30.2 °F 20.2 °F 23.0 °F 75% 29.97 in 10.0 mi SW 12.7 mph 18.4 mph N/A   Overcast
2:54 PM 30.2 °F 19.3 °F 23.0 °F 75% 29.96 in 10.0 mi SW 15.0 mph 21.9 mph N/A   Overcast
3:14 PM 30.2 °F 20.8 °F 23.0 °F 75% 29.95 in 10.0 mi SW 11.5 mph 16.1 mph N/A   Overcast
3:34 PM 30.2 °F 21.3 °F 23.0 °F 75% 29.95 in 10.0 mi SW 10.4 mph 16.1 mph N/A   Overcast
3:54 PM 30.2 °F 20.2 °F 23.0 °F 75% 29.95 in 10.0 mi SW 12.7 mph 18.4 mph N/A   Overcast
4:15 PM 30.2 °F 21.3 °F 23.0 °F 75% 29.95 in 10.0 mi SW 10.4 mph - N/A   Overcast
4:34 PM 32.0 °F 23.6 °F 23.0 °F 69% 29.95 in 10.0 mi SW 10.4 mph - N/A   Overcast
4:54 PM 32.0 °F 23.6 °F 23.0 °F 69% 29.94 in 10.0 mi SW 10.4 mph 16.1 mph N/A   Overcast
5:15 PM 32.0 °F 23.6 °F 23.0 °F 69% 29.95 in 10.0 mi SW 10.4 mph 17.3 mph N/A   Overcast
5:34 PM 32.0 °F 23.6 °F 23.0 °F 69% 29.95 in 10.0 mi WSW 10.4 mph 16.1 mph N/A   Overcast
5:54 PM 32.0 °F 24.2 °F 23.0 °F 69% 29.96 in 10.0 mi WSW 9.2 mph 19.6 mph N/A   Overcast
6:15 PM 32.0 °F 23.0 °F 23.0 °F 69% 29.96 in 10.0 mi SW 11.5 mph 17.3 mph N/A   Overcast
6:34 PM 32.0 °F 22.1 °F 23.0 °F 69% 29.95 in 10.0 mi SW 13.8 mph 18.4 mph N/A   Overcast
6:54 PM 32.0 °F 23.6 °F 23.0 °F 69% 29.95 in 10.0 mi SW 10.4 mph 16.1 mph N/A   Overcast
7:14 PM 32.0 °F 22.5 °F 23.0 °F 69% 29.95 in 10.0 mi SW 12.7 mph 16.1 mph N/A   Overcast
7:34 PM 32.0 °F 24.2 °F 23.0 °F 69% 29.95 in 10.0 mi SSW 9.2 mph 16.1 mph N/A   Overcast
7:54 PM 32.0 °F 24.8 °F 23.0 °F 69% 29.95 in 10.0 mi SSW 8.1 mph - N/A   Overcast
8:14 PM 32.0 °F 23.6 °F 23.0 °F 69% 29.94 in 10.0 mi SSW 10.4 mph 18.4 mph N/A   Overcast
8:34 PM 32.0 °F 23.0 °F 23.0 °F 69% 29.94 in 10.0 mi SW 11.5 mph 18.4 mph N/A   Overcast
8:55 PM 32.0 °F 23.6 °F 24.8 °F 75% 29.93 in 10.0 mi SSW 10.4 mph 16.1 mph N/A   Overcast
9:14 PM 32.0 °F 23.6 °F 24.8 °F 75% 29.93 in 10.0 mi SSW 10.4 mph 18.4 mph N/A   Overcast
9:34 PM 32.0 °F 23.0 °F 24.8 °F 75% 29.93 in 10.0 mi SW 11.5 mph 16.1 mph N/A   Overcast
9:55 PM 32.0 °F 22.1 °F 26.6 °F 80% 29.93 in 10.0 mi SW 13.8 mph 20.7 mph N/A   Overcast
10:14 PM 32.0 °F 22.5 °F 26.6 °F 80% 29.94 in 10.0 mi SW 12.7 mph 18.4 mph N/A   Overcast
10:34 PM 32.0 °F 23.0 °F 26.6 °F 80% 29.94 in 10.0 mi SW 11.5 mph 18.4 mph N/A   Overcast
10:55 PM 32.0 °F 22.5 °F 26.6 °F 80% 29.94 in 10.0 mi WSW 12.7 mph 18.4 mph N/A   Overcast
11:14 PM 32.0 °F 22.1 °F 26.6 °F 80% 29.94 in 10.0 mi WSW 13.8 mph 19.6 mph N/A   Overcast
11:34 PM 32.0 °F 23.0 °F 26.6 °F 80% 29.94 in 10.0 mi SW 11.5 mph 17.3 mph N/A   Overcast
11:55 PM 32.0 °F 23.0 °F 24.8 °F 75% 29.93 in 10.0 mi SW 11.5 mph 18.4 mph N/A   Overcast